Location: ????????
(55.0097°N, 38.5678°E)
Time: 23:59:23
(UTC+00:00)

NOSS 3-1 (C) - Pass Details

Date: 15 December 2025
Orbit: 618 x 1583 km, 63.4° (Epoch: 10 January)

Event Time Altitude Azimuth Distance (km) Brightness Sun altitude
Exits shadow 01:58:44 25° 196° (SSW) 2,419 5.3 -30.6°
Drops below altitude 10° 02:02:42 10° 177° (S) 3,530 6.4 -30.0°
Sets 02:06:09 0° 170° (S) 4,609 7.1 -29.5°
